1508029200.54,44984,12.5,74844.3,3.81,-20.93,-21.43,0,*7E
1508029201.76,44985,12.5,74846.0,3.81,-20.93,-21.33,0,*78
1508029203.01,44986,12.5,74846.3,3.81,-20.83,-21.33,0,*7A
1508029204.23,44987,12.5,74844.0,3.81,-20.79,-21.17,0,*78
1508029205.43,44988,12.5,74842.8,3.81,-20.69,-21.17,0,*76
1508029206.66,44989,12.5,74844.3,3.83,-20.63,-21.13,0,*7B
1508029207.88,44990,12.5,74846.8,3.81,-20.79,-21.17,0,*7E
1508029209.12,44991,12.5,74844.0,3.83,-20.79,-21.13,0,*79
1508029210.38,44992,12.5,74846.8,3.83,-20.89,-21.27,0,*72
1508029211.63,44993,12.5,74844.8,3.79,-20.89,-21.33,0,*73
1508029212.87,44994,12.56,74850.8,3.81,-20.79,-21.33,0,*7C
1508029214.09,44995,12.5,74848.3,3.81,-20.79,-21.17,0,*7B
1508029215.32,44996,12.5,74846.3,3.79,-20.69,-21.17,0,*7E
1508029216.51,44997,12.5,74846.8,3.81,-20.69,-21.13,0,*7C
1508029217.74,44998,12.5,74840.5,3.81,-20.83,-21.17,0,*73
1508029218.99,44999,12.5,74844.0,3.83,-20.93,-21.23,0,*76
1508029220.24,45000,12.56,74848.3,3.81,-20.99,-21.33,0,*77
1508029221.46,45001,12.56,74848.3,3.81,-20.93,-21.33,0,*7C
1508029222.69,45002,12.5,74848.5,3.81,-20.93,-21.27,0,*7A
1508029223.94,45003,12.5,74852.8,3.81,-20.79,-21.27,0,*7F
1508029225.16,45004,12.5,74848.0,3.81,-20.79,-21.17,0,*7B
1508029226.39,45005,12.5,74850.0,3.81,-20.83,-21.17,0,*7F
1508029227.66,45006,12.56,74854.0,3.79,-20.99,-21.33,0,*76
1508029228.88,45007,12.5,74848.3,3.81,-20.79,-21.13,0,*7C
1508029230.16,45008,12.5,74850.0,3.79,-20.83,-21.23,0,*72
1508029231.39,45009,12.5,74850.0,3.81,-20.83,-21.17,0,*73
1508029232.64,45010,12.5,74848.8,3.79,-21.03,-21.39,0,*79
1508029233.89,45011,12.56,74848.5,3.79,-21.03,-21.39,0,*78
1508029235.12,45012,12.5,74848.5,3.79,-21.13,-21.39,0,*7A
1508029236.37,45013,12.5,74848.5,3.81,-20.99,-21.27,0,*70
1508029237.62,45014,12.56,74856.0,3.79,-20.89,-21.33,0,*74
1508029238.89,45015,12.56,74854.0,3.79,-20.99,-21.33,0,*74
1508029240.18,45016,12.5,74848.5,3.79,-20.99,-21.23,0,*76
1508029241.4,45017,12.5,74846.8,3.79,-20.73,-21.13,0,*70
1508029242.68,45018,12.56,74848.0,3.79,-20.83,-21.23,0,*73
1508029243.94,45019,12.5,74842.5,3.79,-20.89,-21.23,0,*78
1508029245.19,45020,12.5,74838.5,3.79,-20.83,-21.17,0,*7F
1508029246.45,45021,12.5,74836.3,3.79,-20.89,-21.23,0,*73
1508029247.71,45022,12.5,74836.8,3.79,-20.89,-21.23,0,*70
1508029248.96,45023,12.5,74838.5,3.79,-20.83,-21.17,0,*7C
1508029250.19,45024,12.5,74842.0,3.79,-20.89,-21.17,0,*71
1508029251.44,45025,12.56,74842.8,3.79,-20.83,-21.13,0,*7E
1508029252.69,45026,12.5,74844.3,3.79,-20.73,-21.23,0,*71
1508029253.96,45027,12.5,74840.3,3.79,-20.89,-21.23,0,*75
1508029255.21,45028,12.5,74842.3,3.79,-20.89,-21.23,0,*7A
1508029256.5,45029,12.5,74848.3,3.79,-20.83,-21.23,0,*71
1508029257.73,45030,12.5,74852.0,3.79,-20.89,-21.17,0,*74
1508029258.95,45031,12.5,74848.5,3.79,-20.73,-21.13,0,*74
1508029260.2,45032,12.5,74846.3,3.79,-20.83,-21.17,0,*7C
1508029261.48,45033,12.5,74846.3,3.79,-20.83,-21.23,0,*7A
1508029262.75,45034,12.5,74848.5,3.79,-20.99,-21.33,0,*77
1508029263.98,45035,12.5,74846.5,3.81,-20.93,-21.27,0,*7E
1508029265.25,45036,12.5,74846.8,3.79,-21.03,-21.33,0,*77
1508029266.53,45037,12.56,74844.0,3.79,-21.03,-21.33,0,*76
1508029267.78,45038,12.5,74844.5,3.79,-20.89,-21.33,0,*7A
1508029269.0,45039,12.56,74846.5,3.77,-20.89,-21.33,0,*75
1508029270.23,45040,12.5,74842.8,3.77,-20.89,-21.27,0,*7E
1508029271.48,45041,12.5,74838.8,3.79,-20.83,-21.17,0,*78
1508029272.72,45042,12.5,74840.5,3.77,-20.89,-21.23,0,*78
1508029273.97,45043,12.56,74842.8,3.79,-20.89,-21.33,0,*76
1508029275.22,45044,12.5,74844.0,3.77,-20.99,-21.33,0,*7E
1508029276.46,45045,12.5,74850.5,3.77,-21.03,-21.33,0,*7D
1508029277.71,45046,12.5,74848.0,3.77,-20.99,-21.33,0,*7C
1508029278.93,45047,12.56,74848.3,3.77,-21.03,-21.43,0,*78
1508029280.18,45048,12.5,74846.0,3.75,-20.93,-21.27,0,*7F
1508029281.43,45049,12.5,74840.5,3.75,-20.43,-20.79,0,*79
1508029282.66,45050,12.5,74836.8,3.77,-20.43,-20.83,0,*76
1508029283.91,45051,12.5,74842.0,3.75,-20.79,-21.17,0,*70
1508029285.1,45052,12.56,74846.0,3.77,-20.73,-21.13,0,*7F
1508029286.3,45053,12.5,74840.3,3.77,-20.73,-21.13,0,*7E
1508029287.53,45054,12.5,74844.3,3.77,-20.89,-21.27,0,*7B
1508029288.75,45055,12.5,74844.0,3.77,-20.83,-21.17,0,*73
1508029289.99,45056,12.5,74840.3,3.77,-20.89,-21.23,0,*7D
1508029291.18,45057,12.5,74842.0,3.77,-20.69,-21.13,0,*71
1508029292.42,45058,12.5,74836.8,3.77,-20.53,-20.89,0,*75
1508029293.65,45059,12.5,74842.3,3.77,-20.59,-20.99,0,*7F
1508029294.89,45060,12.56,74846.8,3.77,-20.53,-20.99,0,*7F
1508029296.09,45061,12.5,74846.0,3.77,-20.73,-21.17,0,*7B
1508029297.37,45062,12.5,74848.0,3.75,-20.79,-21.23,0,*77
1508029298.6,45063,12.5,74848.0,3.77,-20.83,-21.17,0,*76
1508029299.85,45064,12.5,74852.8,3.77,-20.83,-21.23,0,*76
1508029301.07,45065,12.56,74848.5,3.77,-20.73,-21.03,0,*7A
1508029302.3,45066,12.5,74846.3,3.77,-20.39,-20.83,0,*7E
1508029303.55,45067,12.5,74846.8,3.75,-20.63,-21.03,0,*7B
1508029304.77,45068,12.5,74840.3,3.77,-20.69,-20.99,0,*7E
1508029306.0,45069,12.56,74836.0,3.77,-20.59,-20.99,0,*7C
1508029307.28,45070,12.5,74840.3,3.75,-20.79,-21.23,0,*74
1508029308.53,45071,12.5,74838.0,3.77,-20.53,-20.99,0,*7F
1508029309.78,45072,12.5,74836.5,3.75,-20.59,-21.03,0,*76
1508029310.99,45073,12.5,74842.0,3.77,-20.39,-20.73,0,*75
1508029312.22,45074,12.56,74848.8,3.77,-20.53,-20.89,0,*7B
1508029313.47,45075,12.56,74844.5,3.77,-20.53,-20.83,0,*70
1508029314.69,45076,12.5,74846.0,3.75,-20.73,-21.17,0,*7F
1508029315.91,45077,12.5,74844.8,3.77,-20.69,-21.03,0,*72
1508029317.16,45078,12.5,74842.0,3.77,-20.53,-20.83,0,*7D
1508029318.42,45079,12.5,74840.5,3.79,-20.59,-20.99,0,*73
1508029319.61,45080,12.5,74848.5,3.77,-20.73,-21.13,0,*70
1508029320.84,45081,12.5,74840.5,3.77,-20.73,-21.23,0,*72
1508029322.06,45082,12.5,74834.3,3.77,-20.83,-21.17,0,*79
1508029323.29,45083,12.5,74832.8,3.77,-20.69,-21.03,0,*79
1508029324.49,45084,12.5,74834.0,3.77,-20.43,-20.73,0,*70
1508029325.72,45085,12.5,74832.8,3.77,-20.43,-20.83,0,*7E
1508029326.95,45086,12.5,74834.0,3.77,-20.59,-20.99,0,*7D
1508029328.18,45087,12.56,74842.0,3.77,-20.73,-21.23,0,*74
1508029329.38,45088,12.5,74840.8,3.77,-20.73,-21.17,0,*7C
1508029330.59,45089,12.5,74842.8,3.75,-20.73,-21.13,0,*7B
1508029331.82,45090,12.56,74846.0,3.77,-20.69,-20.99,0,*79
1508029333.05,45091,12.5,74844.0,3.77,-20.43,-20.83,0,*7B
1508029334.28,45092,12.5,74840.5,3.77,-20.43,-20.83,0,*78
1508029335.5,45093,12.5,74846.5,3.77,-20.69,-20.99,0,*7A
1508029336.72,45094,12.5,74840.3,3.75,-20.73,-21.09,0,*7C
1508029337.94,45095,12.5,74838.5,3.77,-20.69,-21.03,0,*7E
1508029339.16,45096,12.5,74838.8,3.77,-20.69,-21.03,0,*7D
1508029340.41,45097,12.5,74838.3,3.75,-20.63,-21.03,0,*74
1508029341.64,45098,12.56,74840.8,3.77,-20.53,-20.89,0,*79
1508029342.88,45099,12.56,74846.8,3.77,-20.53,-20.89,0,*78
1508029344.1,45100,12.5,74846.3,3.75,-20.73,-21.17,0,*7F
1508029345.31,45101,12.5,74840.8,3.77,-20.59,-20.89,0,*72
1508029346.56,45102,12.56,74846.0,3.75,-20.63,-21.03,0,*79
1508029347.79,45103,12.5,74840.5,3.77,-20.59,-20.99,0,*71
1508029349.04,45104,12.5,74840.5,3.75,-20.49,-20.93,0,*7F
1508029350.27,45105,12.5,74842.5,3.77,-20.59,-20.99,0,*77
1508029351.49,45106,12.56,74844.0,3.75,-20.73,-21.17,0,*79
1508029352.71,45107,12.5,74840.5,3.75,-20.73,-21.17,0,*78
1508029353.9,45108,12.5,74840.8,3.77,-20.73,-21.13,0,*71
1508029355.12,45109,12.56,74840.5,3.75,-20.73,-21.09,0,*79
1508029356.34,45110,12.56,74840.3,3.75,-20.73,-21.17,0,*7E
1508029357.58,45111,12.5,74842.3,3.75,-20.73,-21.03,0,*7A
1508029358.83,45112,12.5,74842.8,3.75,-20.63,-21.03,0,*78
1508029360.06,45113,12.56,74846.5,3.77,-20.59,-20.99,0,*70
1508029361.28,45114,12.5,74840.8,3.75,-20.73,-21.09,0,*75
1508029362.51,45115,12.5,74844.5,3.77,-20.59,-20.99,0,*76
1508029363.76,45116,12.56,74848.8,3.77,-20.53,-20.83,0,*74
1508029364.97,45117,12.5,74848.5,3.77,-20.43,-20.89,0,*7E
1508029366.17,45118,12.5,74848.0,3.77,-20.43,-20.69,0,*7F
1508029367.38,45119,12.56,74850.3,3.77,-20.43,-20.69,0,*7E
1508029368.58,45120,12.5,74844.5,3.77,-20.39,-20.73,0,*72
1508029369.81,45121,12.5,74844.8,3.77,-20.43,-20.83,0,*71
1508029371.05,45122,12.5,74846.3,3.75,-20.35,-20.73,0,*7E
1508029372.29,45123,12.5,74846.5,3.75,-20.43,-20.89,0,*7B
1508029373.52,45124,12.56,74846.3,3.77,-20.43,-20.83,0,*74
1508029374.73,45125,12.5,74846.8,3.77,-20.43,-20.89,0,*7F
1508029375.96,45126,12.5,74844.3,3.77,-20.53,-20.89,0,*7D
1508029377.19,45127,12.5,74844.3,3.77,-20.59,-20.99,0,*77
1508029378.46,45128,12.5,74846.0,3.75,-20.49,-21.03,0,*79
1508029379.69,45129,12.5,74848.3,3.77,-20.59,-21.03,0,*7B
1508029380.93,45130,12.5,74840.8,3.77,-20.53,-20.89,0,*7A
1508029382.18,45131,12.5,74840.5,3.77,-20.53,-20.99,0,*7A
1508029383.41,45132,12.56,74848.0,3.77,-20.59,-20.99,0,*73
1508029384.66,45133,12.5,74846.0,3.75,-20.59,-20.99,0,*70
1508029385.87,45134,12.5,74844.5,3.77,-20.29,-20.83,0,*79
1508029387.12,45135,12.5,74846.5,3.75,-20.63,-21.03,0,*7D
1508029388.32,45136,12.5,74846.5,3.77,-20.63,-21.09,0,*76
1508029389.55,45137,12.5,74844.3,3.77,-20.59,-20.99,0,*76
1508029390.8,45138,12.5,74844.5,3.75,-20.79,-21.17,0,*7E
1508029392.02,45139,12.5,74844.5,3.77,-20.69,-21.03,0,*79
1508029393.3,45140,12.5,74846.8,3.75,-20.79,-21.23,0,*76
1508029394.51,45141,12.56,74848.5,3.75,-20.73,-21.09,0,*75
1508029395.78,45142,12.5,74846.5,3.75,-20.79,-21.27,0,*70
1508029397.0,45143,12.5,74844.8,3.75,-20.63,-21.09,0,*76
1508029398.25,45144,12.5,74846.0,3.75,-20.79,-21.17,0,*75
1508029399.49,45145,12.56,74846.3,3.75,-20.79,-21.09,0,*7B
1508029400.74,45146,12.5,74846.8,3.77,-20.53,-20.99,0,*7A
1508029401.96,45147,12.5,74842.8,3.75,-20.63,-21.09,0,*72
1508029403.2,45148,12.5,74844.5,3.75,-20.59,-20.89,0,*7D
1508029404.43,45149,12.56,74848.0,3.73,-20.49,-20.89,0,*7B
1508029405.68,45150,12.5,74846.0,3.75,-20.63,-21.03,0,*7E
1508029406.93,45151,12.5,74846.5,3.75,-20.49,-20.93,0,*7F
1508029408.19,45152,12.5,74844.8,3.75,-20.49,-20.89,0,*77
1508029409.44,45153,12.56,74848.3,3.75,-20.49,-20.89,0,*76
1508029410.69,45154,12.5,74846.3,3.75,-20.43,-20.79,0,*74
1508029411.91,45155,12.5,74848.3,3.71,-20.69,-21.09,0,*7F
1508029413.12,45156,12.5,74844.5,3.73,-20.59,-20.93,0,*7F
1508029414.35,45157,12.56,74850.5,3.73,-20.43,-20.79,0,*71
1508029415.57,45158,12.56,74848.0,3.73,-20.35,-20.73,0,*75
1508029416.82,45159,12.5,74846.0,3.75,-20.35,-20.63,0,*73
1508029418.03,45160,12.5,74846.8,3.75,-20.29,-20.73,0,*75
1508029419.3,45161,12.5,74848.0,3.75,-20.35,-20.79,0,*73
1508029420.54,45162,12.5,74848.5,3.75,-20.49,-20.93,0,*7F
1508029421.79,45163,12.56,74848.0,3.75,-20.43,-20.79,0,*70
1508029423.01,45164,12.5,74848.0,3.73,-20.43,-20.89,0,*7E
1508029424.23,45165,12.5,74848.0,3.73,-20.35,-20.73,0,*7B
1508029425.47,45166,12.5,74846.0,3.73,-20.35,-20.79,0,*72
1508029426.68,45167,12.5,74848.0,3.73,-20.43,-20.73,0,*78
1508029427.93,45168,12.5,74840.0,3.75,-20.35,-20.73,0,*70
1508029429.18,45169,12.56,74844.3,3.75,-20.49,-20.93,0,*74
1508029430.4,45170,12.5,74842.8,3.75,-20.63,-20.93,0,*74
1508029431.64,45171,12.5,74840.5,3.73,-20.49,-20.89,0,*70
1508029432.87,45172,12.5,74846.5,3.73,-20.49,-20.89,0,*73
1508029434.07,45173,12.56,74846.0,3.73,-20.63,-21.09,0,*73
1508029435.3,45174,12.5,74846.5,3.73,-20.63,-21.03,0,*7E
1508029436.55,45175,12.5,74846.0,3.71,-20.63,-20.99,0,*7F
1508029437.77,45176,12.5,74844.0,3.73,-20.43,-20.89,0,*7D
1508029439.02,45177,12.5,74844.0,3.71,-20.39,-20.83,0,*79
1508029440.25,45178,12.5,74844.8,3.73,-20.63,-21.03,0,*72
1508029441.5,45179,12.5,74844.0,3.71,-20.69,-21.03,0,*7B
1508029442.69,45180,12.5,74844.8,3.73,-20.73,-21.09,0,*7E
1508029443.91,45181,12.56,74844.8,3.71,-20.69,-21.09,0,*76
1508029445.12,45182,12.5,74844.5,3.73,-20.63,-20.93,0,*7F
1508029446.33,45183,12.5,74848.5,3.73,-20.59,-20.93,0,*77
1508029447.58,45184,12.5,74844.5,3.71,-20.49,-20.93,0,*73
1508029448.81,45185,12.56,74848.8,3.73,-20.43,-20.79,0,*7E
1508029450.05,45186,12.5,74844.3,3.73,-20.49,-20.89,0,*78
1508029451.28,45187,12.56,74848.3,3.73,-20.59,-21.03,0,*7B
1508029452.5,45188,12.5,74848.5,3.71,-20.63,-21.09,0,*75
1508029453.75,45189,12.5,74848.3,3.71,-20.63,-20.99,0,*7C
1508029454.98,45190,12.5,74848.8,3.73,-20.43,-20.79,0,*7A
1508029456.23,45191,12.5,74846.3,3.71,-20.39,-20.83,0,*71
1508029457.51,45192,12.5,74850.3,3.71,-20.53,-20.83,0,*7E
1508029458.78,45193,12.5,74846.3,3.71,-20.49,-20.79,0,*71
1508029460.0,45194,12.5,74846.8,3.73,-20.35,-20.73,0,*75
1508029461.28,45195,12.5,74844.5,3.71,-20.49,-20.83,0,*72
1508029462.53,45196,12.5,74846.0,3.71,-20.39,-20.79,0,*73
1508029463.77,45197,12.56,74844.8,3.73,-20.35,-20.79,0,*7C
1508029465.02,45198,12.5,74846.3,3.71,-20.39,-20.83,0,*78
1508029466.24,45199,12.5,74844.8,3.71,-20.29,-20.63,0,*76
1508029467.46,45200,12.56,74848.3,3.71,-20.29,-20.63,0,*75
1508029468.67,45201,12.5,74846.0,3.73,-20.25,-20.63,0,*7A
1508029469.89,45202,12.5,74844.8,3.73,-20.19,-20.63,0,*76
1508029471.09,45203,12.5,74846.5,3.73,-20.29,-20.63,0,*74
1508029472.34,45204,12.56,74850.8,3.73,-20.15,-20.49,0,*74
1508029473.6,45205,12.56,74848.5,3.73,-20.15,-20.49,0,*75
1508029474.8,45206,12.56,74848.0,3.73,-20.25,-20.59,0,*74
1508029476.01,45207,12.5,74844.3,3.73,-20.43,-20.73,0,*7D
1508029477.21,45208,12.56,74848.8,3.73,-20.29,-20.73,0,*7E
1508029478.46,45209,12.56,74848.5,3.73,-20.15,-20.49,0,*79
1508029479.67,45210,12.5,74846.3,3.71,-20.29,-20.69,0,*7E
1508029480.87,45211,12.5,74848.8,3.73,-20.29,-20.73,0,*76
1508029482.09,45212,12.5,74846.8,3.73,-20.35,-20.63,0,*79
1508029483.3,45213,12.5,74846.5,3.73,-20.25,-20.59,0,*70
1508029484.57,45214,12.5,74840.0,3.71,-20.19,-20.53,0,*70
1508029485.79,45215,12.5,74846.3,3.75,-20.29,-20.63,0,*75
1508029487.01,45216,12.5,74846.8,3.73,-20.35,-20.73,0,*7C
1508029488.26,45217,12.5,74844.5,3.73,-20.35,-20.79,0,*77
1508029489.47,45218,12.56,74850.3,3.71,-20.29,-20.69,0,*76
1508029490.7,45219,12.5,74850.0,3.73,-20.35,-20.73,0,*73
1508029491.92,45220,12.56,74852.3,3.71,-20.39,-20.69,0,*7C
1508029493.2,45221,12.5,74852.5,3.71,-20.19,-20.53,0,*76
1508029494.4,45222,12.56,74850.3,3.73,-19.99,-20.43,0,*74
1508029495.61,45223,12.5,74848.3,3.73,-19.99,-20.29,0,*79
1508029496.86,45224,12.56,74848.8,3.73,-20.15,-20.49,0,*76
1508029498.09,45225,12.5,74846.0,3.73,-20.25,-20.49,0,*74
1508029499.29,45226,12.56,74850.0,3.73,-20.29,-20.59,0,*7A
1508029500.49,45227,12.56,74848.8,3.73,-20.29,-20.63,0,*72
1508029501.73,45228,12.5,74846.3,3.71,-20.35,-20.69,0,*78
1508029502.97,45229,12.5,74850.3,3.71,-20.35,-20.69,0,*79
1508029504.19,45230,12.5,74848.5,3.71,-20.29,-20.69,0,*7C
1508029505.41,45231,12.56,74848.5,3.73,-20.35,-20.73,0,*79
1508029506.66,45232,12.5,74846.5,3.71,-20.19,-20.63,0,*77
1508029507.91,45233,12.5,74848.0,3.71,-20.05,-20.53,0,*78
1508029509.14,45234,12.5,74848.8,3.73,-20.25,-20.53,0,*7F
1508029510.33,45235,12.5,74844.8,3.73,-20.29,-20.63,0,*71
1508029511.54,45236,12.5,74846.5,3.73,-20.25,-20.59,0,*77
1508029512.79,45237,12.5,74846.0,3.71,-20.39,-20.83,0,*7E
1508029514.04,45238,12.5,74844.8,3.71,-20.49,-20.93,0,*77
1508029515.29,45239,12.5,74848.8,3.71,-20.35,-20.69,0,*78
1508029516.54,45240,12.56,74854.0,3.71,-20.39,-20.83,0,*7E
1508029517.79,45241,12.56,74858.8,3.71,-20.39,-20.79,0,*7A
1508029519.04,45242,12.5,74850.8,3.71,-20.35,-20.63,0,*7E
1508029520.29,45243,12.5,74852.8,3.71,-19.99,-20.35,0,*70
1508029521.53,45244,12.56,74850.3,3.71,-19.85,-19.99,0,*76
1508029522.76,45245,12.5,74848.8,3.73,-19.85,-20.25,0,*78
1508029523.99,45246,12.5,74844.8,3.73,-20.15,-20.59,0,*73
1508029525.26,45247,12.5,74846.8,3.71,-20.19,-20.53,0,*76
1508029526.54,45248,12.56,74846.3,3.71,-20.15,-20.53,0,*75
1508029527.79,45249,12.5,74844.5,3.73,-20.15,-20.49,0,*7D
1508029529.03,45250,12.5,74850.0,3.71,-20.29,-20.79,0,*7B
1508029530.29,45251,12.5,74850.8,3.71,-20.35,-20.79,0,*77
1508029531.54,45252,12.5,74850.3,3.67,-20.35,-20.69,0,*72
1508029532.78,45253,12.56,74848.8,3.71,-20.05,-20.35,0,*7E
1508029534.03,45254,12.56,74850.3,3.71,-20.05,-20.49,0,*72
1508029535.27,45255,12.56,74846.8,3.73,-19.99,-20.49,0,*7E
1508029536.49,45256,12.56,74848.5,3.71,-20.29,-20.63,0,*76
1508029537.76,45257,12.56,74850.3,3.71,-20.19,-20.53,0,*77
1508029539.01,45258,12.5,74846.3,3.71,-20.19,-20.69,0,*71
1508029540.22,45259,12.5,74850.8,3.73,-20.29,-20.79,0,*70
1508029541.5,45260,12.5,74850.8,3.71,-20.19,-20.53,0,*73
1508029542.75,45261,12.5,74850.0,3.71,-20.05,-20.53,0,*7F
1508029544.0,45262,12.5,74846.8,3.71,-20.19,-20.63,0,*72
1508029545.25,45263,12.5,74848.8,3.71,-20.19,-20.59,0,*7A
1508029546.47,45264,12.56,74852.3,3.71,-20.29,-20.63,0,*77
1508029547.74,45265,12.5,74850.8,3.71,-20.15,-20.53,0,*7A
1508029548.99,45266,12.5,74850.5,3.71,-20.29,-20.53,0,*76
1508029550.2,45267,12.5,74850.5,3.71,-20.29,-20.69,0,*7E
1508029551.45,45268,12.5,74848.5,3.71,-20.05,-20.49,0,*7D
1508029552.7,45269,12.56,74850.8,3.71,-19.99,-20.35,0,*78
1508029553.95,45270,12.56,74852.3,3.71,-20.19,-20.63,0,*71
1508029555.2,45271,12.56,74854.0,3.71,-20.19,-20.63,0,*70
1508029556.45,45272,12.5,74848.0,3.71,-20.05,-20.53,0,*7D
1508029557.73,45273,12.56,74850.3,3.71,-20.15,-20.53,0,*7D
1508029558.98,45274,12.5,74850.5,3.71,-20.19,-20.63,0,*75
1508029560.22,45275,12.5,74850.8,3.71,-20.05,-20.53,0,*7A
1508029561.45,45276,12.56,74854.8,3.67,-20.25,-20.69,0,*75
1508029562.68,45277,12.5,74852.5,3.67,-20.09,-20.39,0,*7F
1508029563.93,45278,12.56,74854.5,3.67,-20.05,-20.53,0,*70
1508029565.18,45279,12.56,74852.5,3.71,-19.91,-20.19,0,*7F
1508029566.39,45280,12.5,74848.8,3.73,-19.99,-20.29,0,*70
1508029567.61,45281,12.56,74852.5,3.71,-19.99,-20.29,0,*73
1508029568.84,45282,12.5,74848.0,3.71,-19.99,-20.29,0,*70
1508029570.07,45283,12.5,74848.3,3.67,-20.05,-20.25,0,*75
1508029571.33,45284,12.5,74850.0,3.71,-19.99,-20.49,0,*70
1508029572.58,45285,12.5,74850.3,3.71,-20.05,-20.49,0,*7E
1508029573.82,45286,12.5,74848.3,3.71,-20.05,-20.53,0,*76
1508029575.07,45287,12.56,74852.0,3.71,-20.05,-20.35,0,*77
1508029576.32,45288,12.5,74852.3,3.67,-20.09,-20.53,0,*73
1508029577.55,45289,12.56,74854.8,3.67,-20.05,-20.39,0,*72
1508029578.82,45290,12.5,74850.0,3.71,-20.19,-20.53,0,*7C
1508029580.07,45291,12.5,74850.5,3.71,-20.05,-20.49,0,*7B
1508029581.31,45292,12.56,74854.5,3.67,-20.25,-20.59,0,*7C
1508029582.53,45293,12.56,74854.0,3.67,-20.09,-20.39,0,*75
1508029583.76,45294,12.5,74848.5,3.67,-20.09,-20.39,0,*72
1508029584.97,45295,12.5,74850.5,3.65,-20.09,-20.39,0,*71
1508029586.2,45296,12.5,74852.8,3.67,-19.91,-20.25,0,*76
1508029587.46,45297,12.56,74852.3,3.71,-19.99,-20.35,0,*79
1508029588.7,45298,12.56,74854.3,3.71,-20.05,-20.49,0,*72
1508029589.96,45299,12.5,74850.3,3.67,-20.09,-20.53,0,*73
1508029591.19,45300,12.5,74852.0,3.67,-20.05,-20.39,0,*72
1508029592.42,45301,12.56,74852.5,3.67,-19.95,-20.39,0,*70
1508029593.67,45302,12.5,74848.0,3.71,-19.91,-20.35,0,*7C
1508029594.92,45303,12.5,74854.8,3.67,-20.09,-20.53,0,*71
1508029596.2,45304,12.56,74856.8,3.67,-20.19,-20.53,0,*77
1508029597.43,45305,12.56,74856.3,3.67,-20.09,-20.39,0,*7B
1508029598.71,45306,12.5,74852.5,3.67,-20.19,-20.53,0,*75
1508029599.97,45307,12.5,74854.3,3.67,-20.19,-20.59,0,*7E
1508029601.17,45308,12.56,74854.8,3.65,-20.09,-20.59,0,*72
1508029602.42,45309,12.5,74852.0,3.67,-20.05,-20.53,0,*77
1508029603.65,45310,12.56,74852.3,3.67,-20.09,-20.39,0,*7F
1508029604.91,45311,12.5,74852.0,3.65,-20.19,-20.53,0,*71
1508029606.14,45312,12.56,74854.8,3.65,-20.19,-20.59,0,*78
1508029607.39,45313,12.56,74852.8,3.67,-20.09,-20.53,0,*70
1508029608.62,45314,12.5,74850.0,3.67,-19.91,-20.25,0,*7D
1508029609.87,45315,12.5,74848.3,3.67,-20.05,-20.53,0,*7A
1508029611.1,45316,12.5,74850.5,3.67,-20.09,-20.59,0,*7F
1508029612.31,45317,12.5,74848.8,3.65,-20.09,-20.59,0,*7C
1508029613.53,45318,12.56,74850.5,3.65,-20.19,-20.69,0,*71
1508029614.78,45319,12.56,74852.3,3.67,-20.35,-20.69,0,*7C
1508029615.98,45320,12.56,74852.3,3.65,-20.09,-20.59,0,*78
1508029617.21,45321,12.5,74854.0,3.65,-20.09,-20.53,0,*73
1508029618.42,45322,12.56,74858.3,3.65,-20.05,-20.39,0,*70
1508029619.64,45323,12.56,74854.3,3.65,-20.05,-20.53,0,*7D
1508029620.85,45324,12.56,74852.8,3.65,-20.09,-20.59,0,*7C
1508029622.07,45325,12.56,74852.5,3.65,-19.95,-20.39,0,*74
1508029623.3,45326,12.5,74846.8,3.65,-19.61,-19.95,0,*70
1508029624.51,45327,12.5,74844.8,3.65,-19.75,-20.09,0,*7B
1508029625.78,45328,12.56,74850.3,3.67,-19.81,-20.19,0,*7C
1508029627.05,45329,12.56,74848.0,3.67,-19.81,-20.19,0,*7D
1508029628.29,45330,12.5,74844.8,3.67,-19.95,-20.25,0,*7F
1508029629.49,45331,12.56,74844.8,3.65,-20.05,-20.39,0,*72
1508029630.72,45332,12.56,74846.5,3.67,-20.05,-20.39,0,*73
1508029631.95,45333,12.56,74846.5,3.65,-20.05,-20.35,0,*7C
1508029633.2,45334,12.5,74848.3,3.67,-19.95,-20.35,0,*7A
1508029634.42,45335,12.5,74846.5,3.65,-20.05,-20.35,0,*7A
1508029635.65,45336,12.5,74850.5,3.65,-19.95,-20.35,0,*7A
1508029636.88,45337,12.5,74846.8,3.65,-20.05,-20.53,0,*78
1508029638.11,45338,12.56,74848.8,3.65,-20.09,-20.53,0,*7B
1508029639.32,45339,12.5,74848.8,3.65,-20.09,-20.59,0,*70
1508029640.53,45340,12.56,74854.5,3.65,-19.95,-20.25,0,*7A
1508029641.76,45341,12.5,74850.5,3.65,-19.65,-20.05,0,*76
1508029642.97,45342,12.56,74852.3,3.65,-19.75,-20.09,0,*78
1508029644.21,45343,12.5,74846.5,3.67,-20.05,-20.35,0,*79
1508029645.42,45344,12.5,74850.3,3.65,-20.05,-20.39,0,*70
1508029646.64,45345,12.5,74850.0,3.63,-19.85,-20.25,0,*78
1508029647.85,45346,12.5,74848.0,3.65,-20.05,-20.39,0,*72
1508029649.08,45347,12.56,74854.0,3.63,-19.85,-20.25,0,*7A
1508029650.3,45348,12.56,74852.3,3.63,-19.81,-20.25,0,*71
1508029651.54,45349,12.5,74850.0,3.63,-19.85,-20.15,0,*77
1508029652.77,45350,12.56,74850.8,3.63,-19.65,-20.09,0,*7C
1508029653.99,45351,12.5,74850.8,3.65,-19.81,-20.09,0,*71
1508029655.22,45352,12.56,74852.5,3.65,-19.65,-20.05,0,*74
1508029656.47,45353,12.56,74854.0,3.71,-19.75,-20.19,0,*7C
1508029657.71,45354,12.5,74852.8,3.65,-19.65,-20.05,0,*72
1508029658.94,45355,12.56,74854.8,3.65,-19.75,-20.19,0,*7F
1508029660.15,45356,12.5,74850.0,3.65,-19.51,-19.95,0,*74
1508029661.37,45357,12.5,74852.0,3.65,-19.81,-20.05,0,*7B
1508029662.6,45358,12.56,74854.5,3.65,-19.81,-20.25,0,*76
1508029663.83,45359,12.5,74850.5,3.67,-19.47,-19.91,0,*7A
1508029665.07,45360,12.5,74850.3,3.65,-19.81,-20.19,0,*72
1508029666.31,45361,12.56,74854.0,3.65,-19.61,-19.95,0,*73
1508029667.55,45362,12.56,74854.0,3.65,-19.61,-19.95,0,*70
1508029668.78,45363,12.56,74852.5,3.67,-19.75,-19.95,0,*76
1508029669.99,45364,12.56,74852.8,3.65,-19.51,-19.95,0,*75
1508029671.23,45365,12.56,74854.3,3.65,-19.61,-20.05,0,*74
1508029672.5,45366,12.5,74852.3,3.67,-19.81,-20.19,0,*76
1508029673.72,45367,12.5,74854.3,3.65,-19.81,-20.25,0,*7A
1508029674.93,45368,12.5,74852.8,3.65,-19.91,-20.25,0,*74
1508029676.17,45369,12.5,74848.5,3.65,-19.65,-19.95,0,*7F
1508029677.4,45370,12.56,74852.8,3.65,-19.65,-20.09,0,*78
1508029678.61,45371,12.5,74850.8,3.65,-19.75,-20.09,0,*78
1508029679.84,45372,12.5,74850.0,3.67,-19.51,-19.95,0,*70
1508029681.06,45373,12.56,74854.5,3.65,-19.51,-19.95,0,*73
1508029682.29,45374,12.56,74854.0,3.65,-19.31,-19.75,0,*7C
1508029683.54,45375,12.56,74852.8,3.67,-19.41,-19.75,0,*78
1508029684.8,45376,12.5,74848.5,3.67,-19.51,-19.81,0,*71
1508029686.05,45377,12.5,74850.0,3.67,-19.47,-19.81,0,*77
1508029687.28,45378,12.56,74850.5,3.65,-19.41,-19.91,0,*7D
1508029688.51,45379,12.56,74850.0,3.67,-19.75,-20.05,0,*7E
1508029689.74,45380,12.56,74850.5,3.65,-19.91,-20.19,0,*7D
1508029690.96,45381,12.56,74850.8,3.65,-19.81,-20.09,0,*7C
1508029692.16,45382,12.5,74848.0,3.65,-19.75,-20.05,0,*78
1508029693.41,45383,12.56,74848.8,3.71,-19.75,-20.19,0,*71
1508029694.62,45384,12.5,74848.3,3.65,-19.91,-20.25,0,*76
1508029695.85,45385,12.56,74852.5,3.65,-19.91,-20.35,0,*76
1508029697.09,45386,12.56,74852.5,3.67,-19.95,-20.25,0,*72
1508029698.34,45387,12.56,74854.0,3.67,-19.95,-20.35,0,*72
1508029699.55,45388,12.5,74850.8,3.65,-19.91,-20.25,0,*7A
1508029700.78,45389,12.56,74854.0,3.65,-19.91,-20.35,0,*7A
1508029701.99,45390,12.5,74850.5,3.65,-19.91,-20.25,0,*73
1508029703.19,45391,12.56,74854.5,3.65,-19.75,-20.09,0,*76
1508029704.4,45392,12.56,74850.8,3.63,-19.71,-19.99,0,*74
1508029705.65,45393,12.56,74850.5,3.65,-19.81,-20.19,0,*7E
1508029706.85,45394,12.56,74850.3,3.65,-19.91,-20.25,0,*77
1508029708.07,45395,12.56,74848.5,3.63,-19.81,-20.25,0,*71